Regional Weather Roundup
Issued by NWS

Home | Current Version | Previous Version | Text Only | Print | Product List | Glossary Off
Versions: 1 2 3 4 5 6 7 8 9 10 11 12 13 14 15 16 17 18 19 20 21 22 23 24 25 26 27 28 29 30 31 32 33 34 35 36 37 38 39 40 41 42 43 44 45 46 47 48 49 50

000
ASUS43 KLSX 281459
RWRMO

WEATHER SUMMARY FOR MISSOURI
NATIONAL WEATHER SERVICE SPRINGFIELD MO
1000 AM CDT TUE JUL 28 2015

NOTE: "FAIR" INDICATES FEW OR NO CLOUDS BELOW 12,000 FEET WITH NO
       SIGNIFICANT WEATHER AND/OR OBSTRUCTIONS TO VISIBILITY.
       CURRENT SKY AND/OR WEATHER CONDITIONS ARE NOT AVAILABLE FOR
       CHILLICOTHE AND FARMINGTON.

MOZ001>031-035>038-043-044-053-054-281600-
...NORTHERN AND WESTERN MISSOURI...

CITY           SKY/WX    TMP DP  RH WIND       PRES   REMARKS
KANSAS CTY INT MOSUNNY   86  75  69 S15       29.90S HX  95
KANSAS C DTWN  SUNNY     90  73  57 SW14G21   29.89S HX  98
LEE`S SUMMIT   SUNNY     87  72  60 SW15G22   29.93R HX  93
ST JOSEPH      SUNNY     85  76  74 S9        29.87S HX  94
CHILLICOTHE      N/A     87  77  72 S9        29.93R HX  99
KIRKSVILLE     SUNNY     85  77  77 S6        29.96R HX  95

$$
MOZ066>068-077>081-088>096-101>105-281600-
...SOUTHWEST MISSOURI...

CITY           SKY/WX    TMP DP  RH WIND       PRES   REMARKS
SPRINGFIELD    SUNNY     87  73  62 SW9       30.01R HX  94
JOPLIN         SUNNY     88  72  58 S13       29.98R HX  94

$$
MOZ032>034-039>042-045>050-055>058-069>072-281600-
...CENTRAL MISSOURI...

CITY           SKY/WX    TMP DP  RH WIND       PRES   REMARKS
COLUMBIA       SUNNY     86  78  77 SW7       29.96S HX  98
JEFFERSON CITY SUNNY     86  75  69 SW5       29.95S HX  95
ROLLA          SUNNY     85  76  74 SW8       29.99R HX  94
SEDALIA        SUNNY     88  76  67 SW13      29.96F HX  99
OSAGE BEACH    SUNNY     88  73  62 SW10      29.98S HX  96

$$
MOZ051-052-059>065-281600-
...EAST CENTRAL MISSOURI...

CITY           SKY/WX    TMP DP  RH WIND       PRES   REMARKS
ST LOUIS INTL  PTSUNNY   89  75  63 SW3       29.97S HX  99
SPIRIT OF STL  MOSUNNY   86  77  74 CALM      29.95S HX  97
ST CHARLES     SUNNY     83  78  85 S3        29.95S HX  93

$$
MOZ072>076-082>087-097>100-106>115-281600-
...SOUTH CENTRAL AND SOUTHEAST MISSOURI...

CITY           SKY/WX    TMP DP  RH WIND       PRES   REMARKS
CAPE GIRARDEAU SUNNY     88  76  67 W7        29.97S HX  99
FARMINGTON     SUNNY     86  75  70 SW5       30.04S HX  95
POPLAR BLUFF   SUNNY     86  78  77 S8        29.97S HX  98
WEST PLAINS    SUNNY     86  73  65 SW7       30.04R HX  93

$$



USA.gov is the U.S. government's official web portal to all federal, state and local government web resources and services.